GFSSGP_sfc_30mbdewp_000.txt.gz
Dewpoint
73 71 69 66 54 46 45 49 50 53 54 59 58 57 58 59 54 53 66 70 72 73 74 74 75 75 75 74 74 74 75 75 74 75 75 75 75 75 75 75 74 74 73 73 73 73 73 72 72
70 69 67 63 47 37 39 49 52 50 55 58 59 59 59 59 62 63 67 71 72 73 74 75 75 75 74 75 75 75 75 75 76 76 76 76 76 76 75 73 73 73 73 72 72 72 72 72 72
66 65 61 58 46 37 45 50 52 51 55 57 58 60 61 62 65 66 68 70 72 73 74 74 75 75 74 75 76 75 75 75 76 76 76 76 75 74 73 73 73 73 72 72 72 71 71 71 71
64 60 58 52 34 36 48 53 53 53 55 59 61 60 63 65 65 67 68 70 72 73 75 76 75 75 75 76 76 75 75 75 76 76 75 74 74 72 73 73 73 73 73 72 72 71 71 71 72
61 55 46 36 34 40 50 53 54 55 58 59 60 61 62 65 67 69 70 71 71 74 75 75 75 75 75 76 76 76 76 75 75 75 74 75 74 73 73 73 72 72 72 71 71 71 71 72 72
48 50 45 42 41 35 48 52 54 59 61 61 61 61 63 66 68 69 70 71 72 74 75 75 75 75 75 75 76 76 76 75 75 75 75 75 74 74 73 73 72 71 71 71 71 71 72 72 72
43 46 42 42 43 45 49 53 56 61 60 60 62 60 63 66 68 69 70 71 73 75 76 76 75 74 75 76 76 76 75 75 75 75 75 74 74 73 73 72 72 72 72 71 72 72 72 73 73
47 44 42 44 43 38 51 50 55 58 57 63 61 61 62 64 68 69 70 71 72 74 75 76 76 76 76 76 75 74 75 75 74 74 74 74 73 72 73 72 73 72 72 72 72 73 73 73 73
51 46 42 43 41 41 41 49 54 56 61 58 58 61 65 66 67 68 69 70 72 72 74 75 75 76 75 76 75 75 74 75 74 74 74 75 73 71 64 70 70 71 72 73 72 72 73 74 73
44 44 43 43 45 42 43 45 49 55 57 57 60 62 65 66 67 67 68 69 70 71 72 74 74 75 75 76 75 75 75 75 75 75 74 73 71 71 70 69 67 68 72 72 72 72 72 71 70
38 39 43 43 46 47 48 50 53 54 56 58 58 60 65 66 67 67 68 68 69 71 71 72 74 74 74 74 75 74 74 75 74 73 72 72 71 71 70 69 70 70 71 71 72 72 71 71 70
37 40 42 45 48 46 46 49 47 53 56 58 59 62 64 65 65 67 67 68 69 69 70 72 73 73 73 73 74 73 73 73 73 73 72 72 71 69 69 70 71 71 71 70 71 70 70 70 69
36 40 43 45 44 45 47 45 51 54 57 57 58 60 61 64 65 65 65 67 68 68 69 71 73 72 73 72 73 73 73 73 73 72 72 72 71 70 72 71 71 71 71 70 70 70 70 69 69
39 42 44 44 46 47 43 46 48 56 57 57 57 58 59 61 62 62 62 65 67 68 70 72 72 72 72 71 72 72 72 72 72 71 72 72 71 70 71 70 70 69 71 71 71 70 69 69 69
38 40 40 44 46 48 50 49 49 55 57 57 57 58 58 59 60 61 63 64 65 67 70 70 71 73 72 72 72 71 72 71 71 70 70 70 71 71 70 70 69 69 69 70 70 69 68 68 68
31 32 35 41 46 48 49 48 50 55 56 56 57 57 58 58 59 61 63 63 63 66 69 70 71 73 72 72 72 73 72 71 71 70 70 70 71 71 70 69 69 69 69 69 68 67 67 67 67
27 27 34 39 42 46 47 49 50 52 53 54 55 56 57 58 58 60 62 63 63 66 69 70 71 72 72 72 73 73 72 72 71 71 71 71 70 70 70 69 70 70 69 68 67 67 67 67 66
24 28 33 35 37 42 47 48 50 51 52 52 53 54 55 56 57 59 61 62 63 64 67 67 69 71 72 72 73 72 72 72 72 71 71 70 70 71 70 69 69 70 69 69 68 68 67 67 66
22 31 32 33 33 47 46 49 50 52 53 53 54 55 56 56 58 59 60 61 64 65 66 66 67 70 72 71 71 71 70 70 70 70 71 71 70 70 70 70 69 69 68 68 68 67 67 66 66
22 22 32 34 33 37 48 48 50 51 53 54 55 56 57 59 59 60 62 64 64 65 66 68 67 71 71 71 71 71 71 71 71 71 72 71 70 70 69 70 70 68 67 66 65 65 65 66 67
23 24 30 31 34 39 47 47 48 50 52 52 55 57 57 60 59 60 61 63 65 65 67 68 69 71 71 71 71 72 72 71 69 70 70 67 64 64 66 66 65 65 65 64 65 65 65 64 65
20 19 27 33 33 33 41 40 44 47 47 48 52 55 56 59 61 62 62 62 64 66 69 69 71 71 72 72 71 70 67 64 64 67 66 63 61 63 63 63 65 65 65 65 65 67 65 65 63
18 17 17 34 33 33 37 36 41 43 42 44 49 53 54 57 61 62 63 63 65 67 70 70 71 72 72 71 71 68 60 61 64 64 61 61 61 62 63 65 65 63 63 63 65 63 64 64 64
17 15 14 31 29 30 35 33 37 42 41 41 45 52 53 56 61 63 63 62 65 68 70 71 71 70 70 68 66 58 57 60 62 62 59 59 57 63 65 63 62 63 62 63 63 64 63 63 63
16 13 10 9 16 15 22 35 32 42 42 40 42 51 52 55 57 61 61 62 67 68 69 71 70 68 65 61 57 55 58 58 59 59 59 60 62 61 61 61 61 58 60 62 63 62 61 62 61
12 13 10 8 15 15 22 17 15 36 43 43 43 49 51 54 55 57 58 61 65 67 68 69 69 67 63 59 56 57 58 58 58 60 61 56 58 60 61 60 59 59 60 62 63 62 60 62 61
12 14 17 16 23 21 19 22 32 36 42 41 42 46 49 52 55 56 58 60 64 66 68 68 67 65 63 60 60 59 59 60 62 63 59 57 60 60 60 60 59 60 62 61 62 62 62 60 60
12 16 15 19 15 15 18 22 25 40 41 43 42 42 45 51 55 56 57 60 64 65 67 69 67 65 63 62 60 59 60 61 62 61 59 60 60 60 60 60 60 60 61 61 60 60 60 59 60
19 17 18 19 19 16 15 17 32 39 43 44 44 44 44 49 52 56 57 58 64 64 66 68 67 66 64 63 62 61 62 61 61 60 60 59 60 61 62 62 62 61 60 61 61 61 61 60 60
17 17 20 16 17 21 19 20 36 38 40 44 44 47 47 46 51 53 56 57 62 63 66 68 67 66 65 65 63 63 63 63 61 61 60 60 61 61 59 59 59 59 60 61 61 60 60 60 59

GFSSGP_sfc_30mbdewp_003.txt.gz
Dewpoint
73 70 69 67 55 48 48 48 51 51 55 59 58 56 58 59 54 51 66 69 70 71 72 73 73 73 74 74 74 74 74 73 74 74 75 75 74 74 74 73 73 73 72 73 73 72 72 72 71
70 68 67 63 42 45 46 50 50 52 57 60 60 59 59 58 62 66 67 72 72 73 74 74 74 75 74 74 74 74 74 74 74 75 76 75 74 75 74 73 73 72 72 72 71 71 71 71 71
68 66 61 59 42 43 46 50 51 55 59 58 59 61 61 61 65 66 69 71 73 73 74 74 75 74 74 74 75 75 75 74 75 75 75 75 75 73 72 72 72 72 72 71 71 71 71 71 71
63 60 59 49 35 40 49 50 52 55 57 60 61 60 63 65 65 67 70 72 72 74 74 75 74 74 75 74 76 75 75 75 75 76 75 74 73 73 72 72 72 72 71 71 71 70 70 71 71
62 56 45 36 38 50 52 52 53 54 58 60 61 60 62 65 67 69 70 71 72 74 74 74 75 75 76 76 75 75 74 75 76 75 74 73 72 72 72 72 72 72 71 71 71 71 71 71 71
51 49 38 40 43 51 52 52 54 58 61 61 61 61 63 67 67 69 70 71 73 75 75 75 75 75 76 75 75 75 75 74 75 74 74 74 73 73 72 72 71 71 70 70 70 71 71 71 72
49 43 40 42 43 50 52 56 59 59 59 60 62 61 65 67 68 70 70 71 73 75 75 75 75 75 75 76 75 75 75 74 73 74 74 74 74 73 72 72 71 71 71 71 71 71 72 72 73
48 40 42 43 44 47 52 54 60 59 59 62 62 59 61 67 69 70 71 72 74 75 75 75 75 75 76 76 75 74 74 73 73 73 73 73 73 72 72 72 73 71 72 72 72 71 72 73 73
50 41 39 41 42 45 52 55 60 61 61 58 60 62 63 68 69 69 70 71 72 73 75 75 75 75 76 76 75 74 73 73 73 73 73 74 73 72 70 70 71 70 72 72 71 71 71 70 72
45 43 41 44 43 48 50 54 56 59 58 59 61 63 66 67 68 68 69 70 71 72 73 74 75 75 75 76 75 74 74 74 74 74 74 73 71 70 67 70 69 68 70 72 71 71 71 71 70
44 41 44 43 45 44 47 51 54 57 56 59 60 63 65 66 68 68 69 70 69 71 73 74 74 75 75 75 75 74 74 74 73 73 73 72 70 70 70 68 69 69 71 71 71 71 70 70 70
28 41 43 43 47 45 47 51 55 56 57 60 63 64 65 65 67 67 68 69 70 71 72 73 74 74 74 74 74 74 74 73 73 72 73 71 70 69 68 68 69 70 70 69 69 70 69 70 69
25 39 41 44 45 47 48 50 53 55 58 61 64 65 65 66 67 68 69 69 70 70 71 72 74 74 74 73 73 73 73 72 72 73 72 72 70 69 68 70 70 70 70 69 69 70 69 68 68
38 42 42 44 44 46 50 53 54 57 59 60 64 65 65 66 67 67 68 68 69 70 70 72 73 73 73 73 72 72 72 71 72 71 72 72 71 70 70 69 69 68 69 69 70 69 68 68 68
40 39 41 42 45 47 49 49 54 57 58 60 62 63 64 65 66 66 67 67 69 69 69 71 73 73 72 72 71 71 71 71 71 71 71 71 71 70 69 69 68 68 68 69 69 68 66 66 66
39 38 39 43 46 48 48 47 56 57 57 57 58 60 62 63 64 63 64 66 68 68 70 71 72 72 72 72 72 71 71 70 70 70 70 70 71 71 70 68 68 68 68 68 68 66 66 66 66
32 37 38 42 46 47 48 49 56 57 56 56 57 58 59 60 61 62 64 65 65 67 70 70 72 72 72 72 72 71 71 71 70 71 70 70 70 70 70 69 68 69 69 68 67 66 66 65 65
34 33 39 40 44 44 48 48 55 57 56 56 57 57 58 59 59 61 63 64 64 66 69 70 71 72 72 72 72 72 72 71 72 71 70 70 70 70 70 70 69 69 69 68 67 67 66 65 65
29 28 37 40 40 45 45 48 53 55 55 55 56 57 57 58 59 60 62 64 63 65 68 69 70 71 72 71 71 71 70 70 70 71 71 70 69 70 69 69 68 69 68 67 67 67 66 66 66
21 17 29 33 40 43 47 48 49 52 53 54 54 55 56 57 58 58 60 62 63 64 67 68 68 70 72 71 71 71 71 70 70 70 71 71 70 70 69 69 68 69 67 66 65 65 65 65 66
24 23 22 30 39 46 47 47 48 51 51 52 53 54 55 56 57 58 59 60 63 64 66 67 67 69 71 72 71 71 71 71 70 70 71 71 70 70 69 69 68 65 66 64 64 64 64 63 65
23 23 23 30 35 34 44 37 47 49 51 53 54 55 56 58 58 58 60 62 63 64 66 67 67 69 71 71 70 70 70 69 66 66 70 68 66 64 66 64 64 65 65 64 64 66 65 64 62
23 23 20 25 31 36 42 36 42 48 49 51 53 54 56 59 58 58 59 62 63 64 66 67 69 70 71 71 71 70 68 65 62 65 67 64 62 63 62 63 65 64 63 63 64 63 64 64 63
23 18 17 28 31 31 39 35 36 46 47 49 50 53 56 58 59 59 60 61 63 65 67 69 69 70 71 71 71 70 67 61 62 64 62 59 59 59 63 65 63 62 62 62 62 62 63 62 63
18 16 14 21 29 29 33 36 33 43 46 48 49 50 55 57 60 60 61 62 63 66 67 69 70 70 71 71 70 69 64 60 62 62 60 59 59 62 62 61 61 58 59 61 62 62 61 61 62
16 16 14 10 18 25 27 34 34 37 44 47 47 48 53 55 58 61 62 62 63 66 67 69 70 69 69 69 67 63 59 58 60 61 59 59 59 60 60 59 58 56 58 61 61 62 61 60 62
16 14 14 13 22 19 20 24 25 34 38 44 44 45 50 53 56 60 62 62 63 65 67 68 69 69 68 65 63 57 58 58 57 59 60 56 57 59 59 58 57 58 60 61 60 60 60 61 61
14 17 14 18 11 12 18 20 18 30 35 43 43 42 48 53 55 59 61 61 64 65 67 68 69 69 67 63 60 57 59 59 59 60 59 56 56 59 58 58 58 58 59 60 60 59 60 60 60
19 15 17 17 18 12 12 16 27 24 33 42 43 43 46 51 55 57 59 60 62 65 66 67 68 68 67 63 60 59 59 60 61 60 59 58 59 58 58 58 59 60 60 59 59 60 61 60 59
14 14 15 13 17 19 18 17 27 31 39 44 43 43 46 50 54 56 57 58 59 62 64 66 67 67 66 63 61 60 60 61 61 60 59 58 58 58 59 60 60 59 58 58 60 59 59 59 59

GFSSGP_sfc_30mbdewp_006.txt.gz
Dewpoint
73 72 69 66 53 48 47 48 52 54 54 59 59 56 57 59 54 50 66 69 70 70 71 72 73 72 72 72 72 71 72 73 74 74 74 73 73 73 73 73 73 73 72 72 72 72 72 72 71
71 68 67 62 44 45 46 50 50 53 58 60 60 60 60 58 64 65 66 71 71 71 72 72 73 73 72 72 73 72 72 73 74 74 74 74 73 73 73 73 73 72 72 72 72 71 71 71 71
69 65 61 57 41 44 46 51 54 58 60 59 59 61 61 61 65 66 69 72 73 73 73 73 74 74 74 74 74 75 74 73 74 74 74 74 74 73 73 72 72 72 72 71 71 71 71 71 71
63 61 57 40 36 43 48 52 57 58 60 61 60 59 64 65 65 68 71 72 73 73 73 74 74 73 74 74 74 74 74 74 74 75 74 74 73 72 72 71 72 72 71 71 71 70 71 71 71
61 54 40 38 43 51 52 53 56 56 60 60 61 60 62 66 68 70 71 72 73 73 74 74 74 74 74 74 74 75 74 74 75 74 74 73 73 72 72 72 72 72 71 71 71 71 71 71 71
50 49 37 37 46 52 52 53 56 59 61 61 60 60 63 67 67 70 71 71 74 74 74 74 74 74 74 74 74 74 74 74 75 74 73 73 73 72 72 72 71 71 71 71 70 71 71 72 72
52 44 41 42 50 51 52 56 58 60 60 60 62 59 65 66 68 70 71 72 74 75 75 75 75 74 74 75 74 74 74 74 74 73 74 74 73 73 73 72 72 71 71 71 71 71 72 72 73
49 42 43 42 48 49 53 57 60 58 59 62 62 59 60 66 69 70 71 72 74 74 75 75 75 74 75 74 73 73 73 73 73 73 73 74 73 72 72 71 72 72 72 72 72 71 71 72 71
50 41 39 41 45 47 54 57 59 62 61 60 62 62 64 68 69 70 70 71 72 73 74 75 74 74 75 75 74 73 73 73 72 73 73 73 72 72 72 71 71 71 71 71 71 71 71 71 71
46 42 41 43 44 49 53 57 59 59 58 59 61 65 68 68 69 68 68 68 70 71 73 74 74 74 75 76 74 74 73 73 73 73 73 73 72 71 66 70 70 69 69 71 72 71 71 71 70
44 40 42 44 44 52 52 56 57 56 56 60 60 65 67 68 68 68 68 68 69 71 72 74 74 74 75 75 74 74 73 73 73 73 73 73 71 70 71 68 69 69 71 71 71 70 70 70 70
35 40 43 44 48 51 51 54 56 55 55 59 62 65 67 67 67 68 67 69 69 71 72 73 74 74 74 74 74 73 73 73 72 72 73 72 70 69 68 68 69 70 70 69 69 69 70 69 69
28 29 42 45 45 48 51 53 55 54 59 62 63 65 65 66 67 68 68 69 69 70 71 72 73 74 74 73 73 73 73 73 73 72 72 72 70 69 68 69 70 70 70 69 69 70 69 68 68
27 39 44 45 46 48 50 54 55 57 62 63 63 64 65 65 67 67 68 69 69 70 70 72 72 73 74 73 73 73 72 72 72 72 72 72 71 70 69 69 69 69 69 69 70 69 69 67 67
42 41 43 45 46 50 52 51 52 58 62 63 63 64 65 65 67 67 68 68 69 70 70 71 72 74 73 73 72 71 72 72 71 71 71 71 71 70 70 69 69 69 68 69 68 68 67 66 66
39 40 39 43 46 51 48 45 55 59 60 62 63 64 65 66 67 67 68 68 69 70 70 71 72 73 72 72 72 71 71 71 71 71 71 71 71 71 70 69 69 69 69 68 68 67 66 66 66
35 37 38 42 45 48 48 47 56 58 59 61 63 63 64 65 65 67 67 68 68 69 69 70 72 72 72 72 72 72 71 71 70 70 70 70 70 70 70 69 69 69 69 69 67 67 66 66 65
36 37 38 41 43 47 47 48 56 57 57 59 60 60 62 63 64 65 65 66 67 68 69 70 71 72 72 72 72 71 71 71 71 71 70 70 70 70 70 69 69 69 69 68 67 67 67 66 66
35 38 38 40 43 45 46 48 55 56 56 56 57 58 60 60 62 63 63 65 66 66 68 70 70 71 72 71 71 71 70 71 71 71 71 70 69 70 70 70 69 69 68 67 67 67 66 65 66
35 34 37 36 39 44 46 47 55 56 55 56 56 57 57 59 59 60 62 64 64 65 67 69 70 71 72 71 71 71 71 70 70 70 70 70 70 70 69 69 68 69 68 66 65 65 64 65 66
29 28 25 34 42 46 47 46 51 55 56 56 56 57 57 57 58 59 60 63 63 64 66 68 69 70 71 71 71 71 71 71 70 70 71 71 70 70 69 69 69 68 65 64 64 64 64 63 65
23 24 23 33 39 35 43 34 47 50 53 53 54 55 56 57 58 58 59 60 62 63 65 67 68 69 70 71 71 70 69 69 69 69 70 71 70 69 67 66 66 64 65 64 64 65 65 64 62
21 25 25 32 36 38 43 35 35 49 49 50 52 53 54 55 57 58 58 60 61 63 65 66 67 68 70 71 71 70 69 69 64 65 67 68 66 64 64 64 63 65 64 63 64 64 64 64 63
22 18 24 29 33 31 34 38 33 47 47 48 51 53 54 55 57 58 59 60 61 63 65 66 66 67 69 70 70 70 69 67 64 63 66 66 62 61 62 63 64 65 63 63 63 63 63 63 63
19 19 17 19 26 24 33 39 34 38 47 46 49 52 54 56 58 58 58 60 62 63 64 66 66 67 69 70 70 70 69 66 63 63 65 62 59 59 62 64 63 62 61 61 62 62 62 62 62
19 19 17 13 16 25 34 35 35 39 41 47 48 51 53 55 58 58 59 60 61 63 64 66 67 67 69 70 70 70 69 65 62 62 62 60 59 60 62 62 61 58 58 60 62 62 62 61 61
16 15 19 16 20 17 26 28 30 34 35 42 45 50 51 54 57 59 60 60 61 63 64 66 67 68 69 70 70 69 67 65 61 62 61 60 60 60 61 60 59 57 58 61 61 60 60 61 61
15 18 15 16 12 13 18 20 23 26 31 35 42 47 49 53 57 59 60 61 62 62 64 66 67 68 69 69 68 67 65 63 59 60 60 59 59 58 59 59 58 58 58 60 61 60 59 60 60
16 15 17 17 16 12 11 17 24 21 26 29 36 45 48 50 55 57 61 62 62 62 63 65 67 68 69 68 66 64 62 59 59 58 60 59 56 57 59 59 58 59 59 60 59 59 59 60 60
14 14 16 13 14 19 16 13 23 24 28 36 36 45 45 49 54 56 60 61 62 62 63 65 67 68 69 68 65 62 60 59 59 59 60 60 58 58 59 59 59 60 61 60 59 58 60 60 59

GFSSGP_sfc_30mbdewp_009.txt.gz
Dewpoint
73 73 70 67 51 47 47 49 52 53 54 59 56 54 57 59 54 52 65 68 68 69 70 71 73 72 72 72 71 72 72 72 73 74 73 72 71 72 73 73 73 73 72 72 72 72 72 71 71
68 68 67 62 45 40 46 50 51 53 58 58 59 59 58 57 62 63 65 68 69 69 69 69 73 72 72 72 72 72 73 73 74 74 73 72 72 72 73 73 72 72 72 72 72 71 71 71 71
68 65 61 51 44 40 45 50 54 57 58 57 58 60 59 59 63 63 66 69 69 70 70 70 73 73 73 72 72 72 73 73 73 73 73 73 73 73 73 72 72 72 72 71 71 71 70 70 71
63 61 56 39 40 46 49 52 56 57 59 60 58 56 61 63 63 65 68 69 69 70 70 72 74 73 73 73 73 73 74 73 74 73 73 73 73 72 72 72 72 72 71 71 71 71 71 71 71
59 53 40 41 45 50 51 54 57 56 58 58 58 57 59 66 67 67 68 69 68 70 71 72 74 73 73 74 74 74 74 73 74 73 73 73 72 72 72 72 72 72 71 71 71 71 71 71 71
50 48 37 38 47 51 52 55 57 59 59 59 57 56 60 67 65 67 68 68 68 69 70 71 73 73 74 74 74 74 74 73 73 73 73 73 73 73 72 72 71 71 71 71 71 71 72 72 72
47 44 41 43 48 50 51 54 56 58 58 58 57 56 63 64 64 67 67 69 69 70 70 72 72 73 74 75 74 74 74 73 73 73 73 73 73 73 73 72 72 71 71 71 72 71 71 72 72
48 43 42 44 46 46 53 55 58 57 57 61 59 56 59 64 65 67 68 69 70 70 71 72 72 72 72 72 73 73 73 73 73 73 73 73 73 73 72 72 72 72 72 72 72 71 71 71 71
50 42 39 40 46 47 54 53 59 59 60 59 60 60 59 65 66 66 67 68 69 70 72 72 71 73 73 72 72 73 73 73 73 73 73 72 71 70 70 71 71 70 71 70 71 71 71 72 71
44 43 40 42 45 48 53 53 58 58 58 57 61 63 65 66 65 63 64 65 67 68 70 72 72 72 72 70 72 72 70 70 70 71 71 71 71 72 71 69 70 70 69 71 71 72 71 69 68
44 40 42 43 44 50 52 54 57 56 55 56 59 63 65 65 64 63 63 64 65 67 69 71 72 73 73 73 73 74 72 72 71 72 71 73 71 71 70 69 68 67 71 69 69 69 68 70 69
36 40 41 43 47 50 51 54 55 55 51 56 61 64 64 64 64 63 63 64 65 67 69 70 72 73 73 73 71 72 70 71 70 71 73 72 71 70 70 69 70 71 70 70 70 69 70 69 69
30 29 38 43 48 49 53 53 53 55 55 59 62 64 64 64 64 64 65 65 66 67 69 70 72 72 73 73 71 71 72 69 69 71 71 70 71 71 71 70 71 71 70 70 70 70 70 69 67
27 34 40 44 48 50 50 53 53 54 60 61 62 63 63 63 64 65 66 66 66 66 68 70 72 73 73 72 73 73 72 72 71 71 71 72 71 71 71 70 70 70 70 69 70 70 69 67 67
43 41 44 45 47 49 51 52 51 55 60 61 61 62 63 64 65 65 66 66 67 67 67 68 70 72 73 73 74 73 72 71 70 70 72 72 73 72 71 71 71 70 70 70 69 69 68 67 66
39 41 38 44 47 51 47 40 51 58 59 59 60 61 62 63 64 65 66 66 68 68 68 68 68 69 71 72 73 72 72 72 71 73 73 72 71 71 71 70 71 71 71 69 69 68 67 66 65
38 34 38 42 46 49 46 42 52 58 58 58 59 60 61 62 64 65 66 67 68 69 69 70 71 71 72 73 73 73 73 73 73 72 72 72 72 72 72 71 71 71 70 70 69 68 67 64 62
33 36 38 39 44 47 46 45 54 57 57 58 60 60 61 62 64 66 67 67 68 69 70 70 71 72 73 73 73 72 73 73 73 72 72 72 71 71 71 71 71 71 70 69 68 68 67 66 65
32 37 36 41 44 44 45 45 53 56 57 57 59 60 61 61 62 64 66 67 68 69 69 70 71 72 72 71 71 71 70 72 71 72 71 71 72 71 72 71 71 70 68 68 69 67 66 63 66
36 35 36 40 43 43 45 44 50 55 55 56 57 59 60 61 62 64 65 65 66 67 69 70 71 72 73 72 72 71 71 72 71 72 73 72 72 72 71 71 69 69 67 68 67 67 64 64 66
33 34 36 36 41 45 44 40 47 54 55 56 56 57 57 58 60 61 63 64 65 66 68 69 71 71 73 73 73 73 73 72 71 71 71 71 72 72 71 70 69 69 67 63 66 66 66 62 65
22 34 37 38 37 34 41 32 41 47 53 55 55 56 56 57 59 59 61 63 64 65 67 68 70 71 72 73 72 71 69 69 70 70 70 71 72 71 71 70 67 67 65 66 66 65 66 66 61
24 30 31 35 35 37 41 36 32 48 48 52 54 54 55 55 57 58 59 61 63 64 66 67 70 71 72 73 72 71 70 70 70 69 70 72 72 71 70 68 66 66 65 67 65 66 66 65 63
26 27 30 36 33 27 29 35 26 44 45 46 50 53 54 55 56 57 59 60 62 63 65 66 69 70 71 72 72 72 71 71 69 68 66 68 69 68 67 65 66 67 66 66 64 65 65 65 65
23 22 22 24 26 22 31 37 30 36 43 44 46 50 52 54 55 56 58 59 61 63 64 66 68 69 70 70 71 71 71 72 70 69 66 66 67 66 64 65 65 65 67 65 64 65 65 64 63
22 20 20 19 20 21 34 31 29 37 38 44 47 49 51 52 54 56 58 60 61 62 64 65 66 68 69 69 71 71 72 71 70 69 66 65 66 65 63 64 65 66 64 63 64 63 63 64 62
22 20 21 21 21 19 23 33 31 34 37 40 43 47 50 52 53 55 58 59 61 63 65 66 67 68 68 69 71 71 72 71 69 68 67 66 66 63 64 64 65 64 61 62 64 61 62 63 63
18 20 17 20 19 18 19 23 17 28 29 38 42 45 48 52 55 56 58 59 61 62 64 65 67 67 68 69 70 70 71 71 71 69 66 65 64 63 63 64 63 62 61 61 64 61 61 62 61
15 15 21 19 19 17 17 17 28 25 30 31 39 44 47 51 55 56 59 60 61 62 63 65 65 67 67 69 70 70 70 70 70 68 65 64 64 64 63 63 62 61 61 61 62 62 61 61 61
11 15 18 16 21 19 18 16 26 29 32 34 31 41 46 52 55 57 58 60 60 61 62 63 64 65 67 68 70 69 70 69 67 67 63 64 62 63 62 62 62 61 61 61 62 62 58 60 60

GFSSGP_sfc_30mbdewp_015.txt.gz
Dewpoint
72 71 70 70 58 54 44 45 50 50 51 51 52 56 58 60 56 53 65 67 67 66 69 70 72 72 72 72 72 72 72 72 73 73 72 72 73 73 73 72 72 72 72 71 71 70 70 70 70
69 69 69 63 46 48 43 48 49 51 51 52 52 53 54 55 58 62 63 65 65 64 66 68 73 72 72 72 71 72 71 71 71 72 71 71 72 72 72 71 72 71 71 71 70 70 70 71 71
68 66 60 50 43 41 43 46 48 50 51 51 52 54 56 57 59 61 63 64 64 64 66 70 72 71 72 72 72 72 72 71 71 71 71 71 72 72 71 71 71 71 71 70 70 70 71 71 71
64 59 54 31 33 40 45 46 48 49 50 51 52 53 56 59 61 61 64 64 64 64 65 71 72 72 72 72 73 72 72 73 71 71 71 72 72 71 71 71 71 70 70 70 70 71 71 71 71
58 53 44 28 32 39 45 47 47 47 48 49 52 54 56 59 61 62 65 65 65 66 66 68 72 72 72 73 73 73 73 73 72 72 72 72 72 71 71 71 70 70 70 71 71 71 71 71 71
52 43 36 28 30 36 44 47 47 47 49 50 52 55 58 61 61 63 65 65 66 66 65 68 73 73 73 73 73 72 72 72 72 72 73 72 72 72 71 70 70 70 70 71 71 70 70 71 70
49 43 35 29 32 33 38 45 44 46 48 48 53 54 58 60 61 63 64 65 65 65 66 68 70 73 73 73 73 72 73 73 73 73 73 72 72 72 71 71 70 71 71 71 71 70 70 70 70
47 42 30 36 32 31 37 41 43 45 48 50 52 54 56 60 61 61 62 64 64 65 64 66 68 69 69 71 73 73 73 72 71 72 72 72 72 71 70 70 71 71 71 70 71 70 71 70 70
44 43 35 32 39 34 36 38 43 47 49 48 50 53 57 60 60 59 59 62 63 64 65 64 65 66 69 69 72 73 73 71 71 71 72 71 68 70 69 70 70 70 70 70 71 70 70 70 70
39 48 40 33 37 37 38 36 41 44 47 49 51 54 58 60 59 58 58 59 60 63 64 64 67 66 66 64 69 68 66 66 66 65 69 66 66 68 66 68 69 70 70 70 70 70 70 71 70
32 44 42 34 34 40 39 38 40 41 43 47 50 54 56 58 59 58 58 59 59 63 63 65 68 70 65 66 66 66 66 65 65 66 67 65 66 66 68 70 68 68 69 69 70 69 69 68 64
27 31 30 31 36 36 38 40 38 38 41 46 51 54 56 57 58 58 57 58 59 62 61 61 65 66 65 66 64 63 62 62 63 65 68 68 67 66 66 70 68 68 68 66 67 67 67 65 65
25 28 26 27 33 35 39 39 38 37 42 46 51 53 55 56 57 57 57 57 59 60 61 61 64 67 66 67 64 64 62 62 62 63 67 67 65 66 67 66 67 67 66 67 66 67 67 66 66
25 25 26 27 31 36 38 39 42 39 44 47 52 53 54 54 55 56 57 57 59 60 61 62 65 68 68 68 68 65 66 65 63 64 64 68 67 68 70 69 66 66 68 69 67 67 69 69 68
25 26 30 29 32 35 37 38 39 40 46 48 51 52 52 53 54 55 56 57 59 61 62 63 65 67 68 69 69 68 65 64 65 64 65 68 69 68 70 67 66 67 67 70 68 69 68 67 66
22 25 27 29 32 37 39 36 39 43 45 47 49 52 52 52 53 55 56 57 59 60 62 64 64 65 68 68 69 67 65 67 67 65 68 68 69 70 69 67 66 67 67 68 69 67 68 62 57
24 22 25 29 32 38 39 48 40 44 44 44 48 49 51 52 53 55 56 58 58 61 62 64 64 64 66 69 68 68 68 68 67 67 65 70 69 69 69 67 67 69 68 69 68 67 63 57 55
24 24 25 32 31 38 36 41 41 45 44 42 45 47 49 51 53 55 57 58 59 61 63 65 65 66 67 70 70 70 67 68 67 65 68 70 69 69 69 67 69 69 68 68 68 64 61 59 57
23 24 23 27 30 35 35 36 39 45 45 43 45 46 47 49 52 54 57 58 59 61 64 66 67 69 68 68 70 68 66 67 64 64 67 71 71 70 70 70 70 69 67 66 63 61 56 55 57
21 23 23 26 30 33 34 35 38 44 45 46 46 46 47 48 49 53 56 58 60 61 64 67 69 71 71 70 69 68 66 63 64 64 66 68 69 70 70 70 66 67 64 65 63 61 58 54 59
20 21 22 24 34 35 33 34 35 38 44 46 46 47 48 47 47 51 55 57 59 61 64 68 71 72 72 71 70 69 70 68 66 63 67 68 69 68 70 70 69 68 66 57 62 61 60 56 57
19 21 22 23 31 32 30 28 33 34 37 43 46 47 48 47 48 48 54 57 58 60 64 67 71 72 72 73 69 69 66 63 60 61 60 64 66 66 68 68 66 66 61 60 60 60 61 60 55
17 21 23 22 27 35 27 26 27 32 33 36 42 46 47 47 48 48 51 55 58 59 62 66 71 73 73 73 71 68 68 61 61 60 64 65 67 65 64 65 66 65 59 61 63 61 62 61 57
15 19 22 21 22 24 29 28 30 33 31 33 35 42 47 48 47 50 51 54 56 58 61 64 71 73 74 73 73 72 70 65 62 62 63 62 62 65 64 65 65 62 60 62 62 62 62 61 61
14 15 19 19 19 20 26 26 34 30 30 32 31 35 43 48 48 47 52 52 56 59 61 64 70 73 74 72 72 72 72 71 68 66 63 61 59 61 66 66 66 62 63 63 62 63 61 61 60
9 13 16 18 18 19 21 23 24 31 29 29 29 28 35 45 48 46 49 53 56 58 62 64 68 72 74 72 73 73 73 69 67 67 63 60 59 60 67 66 65 62 63 63 63 61 60 60 60
4 8 16 17 20 20 20 22 25 29 29 29 28 27 29 42 46 46 47 50 54 57 62 64 67 71 72 70 74 74 74 73 66 67 69 64 62 58 61 66 64 62 62 63 62 59 61 60 60
3 7 11 18 19 19 18 19 22 26 28 28 28 26 28 37 45 46 46 49 53 56 60 64 66 70 70 70 72 72 73 74 73 71 70 66 64 63 64 64 63 62 62 63 62 60 60 60 59
5 3 11 16 19 18 19 20 21 26 28 26 27 25 27 33 43 46 46 48 52 54 56 61 64 67 69 69 70 70 71 72 73 72 71 70 67 66 63 66 63 61 63 61 62 61 60 60 60
9 5 7 16 20 19 19 18 22 22 24 25 25 25 27 29 39 45 46 48 50 53 53 57 60 61 66 67 70 70 71 71 71 72 72 72 70 67 67 66 65 63 63 62 62 61 59 57 57

GFSSGP_sfc_30mbdewp_021.txt.gz
Dewpoint
73 72 70 65 57 56 52 53 56 53 55 58 57 56 57 59 54 53 66 69 70 70 71 71 72 72 73 73 74 74 74 75 75 75 75 74 73 73 73 73 72 72 71 71 71 71 71 71 71
71 70 69 60 54 50 50 51 51 55 56 59 59 57 57 58 60 63 66 69 69 70 70 71 72 72 73 73 74 74 73 73 74 75 75 74 73 73 72 72 72 71 71 71 71 71 71 71 71
69 67 63 58 53 48 50 52 53 57 58 57 57 57 58 60 63 65 67 68 68 69 70 72 73 73 73 73 74 74 73 73 73 74 74 74 73 72 72 71 71 71 71 71 71 71 71 71 71
67 68 66 57 49 50 50 52 53 57 56 57 57 56 60 63 63 66 67 66 66 69 72 73 73 72 73 73 73 73 73 73 73 73 74 73 72 71 71 70 70 70 71 71 71 71 71 71 71
68 64 57 53 48 47 49 50 52 54 55 56 57 58 59 63 64 66 65 65 67 70 72 73 74 74 73 73 73 73 72 72 73 74 73 73 72 71 70 70 70 70 71 72 71 70 71 70 71
61 62 52 48 43 44 48 51 55 55 58 58 57 59 60 63 64 63 65 66 68 70 71 72 74 74 74 73 73 73 72 72 73 73 73 73 72 72 71 70 70 70 71 71 71 70 71 70 70
55 54 51 48 37 42 49 52 52 54 56 57 59 58 60 62 63 63 64 65 67 68 70 72 73 73 74 74 74 73 73 73 73 73 73 72 72 71 71 70 70 70 71 71 71 70 70 70 70
58 55 51 47 43 35 49 48 52 53 55 58 61 59 59 62 63 63 63 64 65 68 70 71 73 73 74 74 73 73 73 73 73 72 72 72 72 71 70 71 70 70 70 70 70 70 70 70 71
59 51 48 44 43 34 42 46 50 53 55 58 57 61 63 63 63 64 64 64 66 68 69 71 71 72 73 72 72 73 73 72 72 72 72 72 72 71 71 71 71 70 70 70 70 71 71 71 71
52 48 43 42 45 37 44 48 49 49 53 56 57 61 63 63 64 63 63 64 66 67 68 70 70 71 72 71 72 73 72 72 71 71 71 72 71 69 71 71 71 70 70 71 71 70 71 72 70
48 43 44 45 42 42 36 38 43 44 52 54 56 60 62 62 63 63 62 64 65 65 67 68 70 71 70 70 71 72 72 70 69 69 70 70 70 70 69 70 70 70 70 70 70 71 71 69 70
41 40 38 37 44 37 36 37 41 42 51 55 55 55 62 61 61 62 62 63 64 64 65 67 69 70 70 71 71 71 70 69 68 69 71 71 71 68 69 70 69 69 70 70 71 70 69 69 67
35 37 37 37 40 41 39 38 42 45 54 56 56 55 59 61 61 60 61 63 62 64 65 67 68 69 70 69 68 68 69 69 69 69 71 68 70 69 68 71 70 70 69 69 69 70 69 68 69
33 32 27 34 39 41 39 38 42 47 55 56 56 56 56 55 58 60 60 61 62 64 65 68 68 69 69 69 69 69 68 68 69 70 69 69 69 69 70 69 69 69 70 71 70 68 68 69 69
28 27 25 25 25 39 43 41 39 46 52 55 56 56 56 56 55 56 61 61 61 63 65 68 67 71 70 68 71 70 69 65 65 69 71 70 71 69 70 70 68 71 70 70 71 68 69 69 68
24 22 20 23 26 34 43 43 42 43 50 52 54 55 56 56 55 55 60 61 60 63 66 68 68 70 71 69 72 69 68 70 68 68 71 70 71 71 69 71 71 69 70 69 68 68 68 67 65
19 18 19 20 26 32 40 41 38 40 47 48 52 52 54 55 55 56 56 60 61 65 67 67 68 68 69 70 72 69 68 70 68 71 70 71 72 71 70 70 70 70 70 69 69 67 67 61 58
17 17 18 20 28 37 40 38 41 42 43 47 49 50 52 53 54 57 56 59 61 65 67 66 68 68 68 72 72 70 70 70 71 70 67 68 71 71 70 70 71 70 69 69 67 66 65 61 61
18 18 19 20 30 42 41 39 38 40 42 43 48 48 50 52 53 56 56 58 62 66 65 67 67 70 69 71 70 71 69 70 69 68 71 71 71 71 71 70 70 71 69 68 66 65 59 58 62
16 18 19 21 32 36 43 40 40 39 38 43 45 48 49 51 52 55 56 57 61 65 65 66 67 72 70 70 71 70 70 70 70 71 72 71 71 72 70 70 70 70 69 68 64 61 61 62 63
16 17 18 20 30 38 45 42 44 39 41 44 44 46 49 49 50 54 55 56 59 64 67 67 67 71 72 71 71 70 71 70 69 70 70 71 72 72 71 71 70 71 68 65 62 62 62 59 63
17 18 19 20 23 30 41 37 43 39 41 43 43 43 46 49 50 53 55 56 57 63 67 68 69 71 70 72 70 69 68 67 68 68 70 72 72 71 71 71 71 68 67 64 64 63 62 62 58
14 19 19 20 20 32 31 30 41 43 42 43 42 43 43 45 48 52 56 56 58 63 66 69 69 70 71 72 70 69 69 68 69 68 69 72 71 71 71 71 71 67 66 67 64 62 60 64 64
8 15 18 20 20 22 30 31 34 39 41 42 42 44 44 44 46 52 54 57 57 63 66 70 70 70 72 70 72 70 70 69 68 68 69 71 70 69 71 71 69 66 62 65 64 64 63 62 63
6 6 12 15 17 18 26 30 33 37 38 43 43 43 45 46 45 46 53 56 57 62 66 70 70 71 72 72 71 71 71 68 67 69 69 69 68 66 70 70 67 65 64 65 65 63 63 62 62
5 4 7 13 15 17 22 27 32 36 36 43 43 42 44 45 47 47 52 54 58 60 65 69 71 71 72 72 73 72 72 70 70 70 68 67 67 66 69 69 67 65 63 67 67 64 64 63 62
9 3 4 7 13 17 19 20 22 36 35 38 39 39 41 41 48 48 50 54 57 59 65 67 71 71 72 73 73 72 72 73 73 71 71 67 64 68 68 70 67 65 64 64 67 64 62 65 62
9 10 4 3 4 9 14 18 21 26 35 39 38 39 40 41 46 49 50 53 57 59 64 66 72 72 72 71 73 74 73 72 73 71 69 69 66 69 68 70 68 66 64 64 66 64 64 63 63
11 6 6 5 5 7 13 15 21 26 38 39 38 37 36 40 43 49 51 53 58 59 62 66 70 71 72 73 72 73 74 73 72 72 70 69 68 68 69 69 68 66 66 66 67 64 63 64 62
12 11 8 7 9 12 8 10 20 19 36 37 37 36 37 38 46 49 51 53 58 59 60 65 71 71 72 73 73 72 73 74 72 71 72 71 68 69 69 69 69 66 64 67 66 63 63 62 64

GFSSGP_sfc_30mbdewp_024.txt.gz
Dewpoint
71 71 71 66 58 56 52 53 57 53 54 57 57 56 58 59 55 54 66 68 69 69 71 72 72 72 73 74 75 74 74 74 75 75 73 73 73 73 73 72 72 71 71 71 71 71 71 71 71
72 71 68 61 54 50 50 53 54 55 56 57 57 57 58 57 62 64 66 68 69 70 71 72 72 73 73 74 74 74 73 73 74 74 73 73 73 73 72 72 71 71 71 71 71 71 71 71 71
70 67 60 58 54 49 48 52 54 56 58 57 57 58 59 60 63 65 68 69 70 70 71 72 73 73 73 74 74 74 73 73 73 73 72 72 72 72 71 71 71 71 71 71 71 71 71 71 71
68 65 65 58 51 52 52 56 56 57 57 57 58 58 62 64 64 66 69 69 69 70 71 72 72 72 73 73 73 72 72 72 73 73 72 72 72 71 71 71 71 71 72 72 71 71 71 71 71
68 63 56 55 52 50 55 58 58 56 56 58 59 58 60 64 66 68 68 68 69 70 71 72 73 73 73 73 72 72 72 72 73 73 72 72 72 71 70 70 70 71 71 72 71 71 71 71 71
61 61 52 49 48 50 56 58 56 56 57 59 59 59 61 65 66 67 67 68 70 71 72 73 73 73 73 72 72 72 72 72 73 73 72 72 72 71 70 70 70 70 71 71 71 70 71 70 70
54 52 49 50 46 49 55 57 56 56 57 58 59 58 62 64 66 65 67 69 70 72 72 73 73 72 72 73 72 72 72 72 73 73 73 72 72 71 70 70 70 71 71 71 71 70 70 70 69
56 52 50 49 44 48 54 56 58 57 57 60 60 58 60 63 64 65 67 68 69 71 72 72 73 73 74 74 73 73 72 72 72 73 72 72 72 71 71 70 71 71 70 70 70 71 71 70 70
59 48 43 43 43 49 53 55 57 58 59 58 60 60 62 63 63 64 65 66 68 69 71 72 72 73 74 73 73 73 72 72 72 72 72 73 72 71 72 71 71 72 70 70 70 71 70 70 70
52 48 45 43 44 48 49 54 55 57 58 59 60 61 62 62 62 62 63 64 67 68 70 72 72 73 73 72 72 73 72 73 72 72 72 72 71 71 72 72 72 71 71 71 71 70 71 70 70
53 47 46 45 45 48 50 53 55 57 57 59 60 61 61 62 62 63 63 66 66 68 69 70 71 72 72 71 72 72 72 71 70 70 70 70 71 70 71 70 71 71 71 69 70 71 69 69 69
49 49 45 45 45 44 48 54 54 55 54 58 62 62 62 62 62 63 63 66 66 67 69 70 71 71 71 70 72 72 71 70 69 68 69 70 70 68 68 69 70 69 70 70 70 70 69 69 68
40 38 44 44 41 42 42 44 53 53 56 59 62 62 62 62 62 63 64 65 66 67 68 69 70 70 70 70 70 70 70 69 69 68 69 70 70 68 69 69 70 70 69 69 68 69 69 68 69
30 31 32 36 40 40 38 41 46 53 56 59 61 62 62 62 62 62 63 64 64 66 66 69 69 70 70 70 70 69 69 69 68 69 69 70 70 69 69 69 69 70 70 70 70 69 68 69 69
30 27 27 25 29 40 41 44 50 55 55 56 60 61 62 62 62 61 63 63 63 65 66 67 69 70 70 69 68 68 68 69 69 69 70 70 70 69 70 70 68 70 70 71 70 68 68 68 67
23 23 22 23 41 42 38 41 53 55 54 54 57 61 61 61 61 61 62 62 62 65 65 67 67 69 69 69 68 71 69 67 68 70 70 70 70 70 70 70 70 69 69 68 68 68 67 63 59
22 21 20 20 35 42 41 40 44 55 55 55 54 55 58 57 59 61 61 62 62 64 65 67 66 68 70 69 70 69 68 69 68 69 71 70 71 71 69 70 70 71 70 69 69 67 66 60 58
21 20 18 18 26 41 41 40 43 54 55 55 55 55 55 55 56 58 61 61 61 64 67 67 66 68 70 69 71 69 68 69 70 70 70 70 71 72 70 70 70 70 69 69 67 66 66 61 61
20 20 18 19 22 38 39 39 40 52 53 54 55 55 55 55 56 57 62 62 62 64 67 67 67 68 69 70 70 69 67 68 70 70 69 69 71 71 70 70 70 70 68 68 66 63 59 57 62
16 16 18 19 20 37 40 39 38 47 49 52 52 53 54 55 55 56 59 61 63 66 67 67 67 67 67 69 69 69 69 69 69 70 70 69 70 71 70 69 70 70 69 68 65 60 59 61 63
15 13 15 16 19 44 41 39 41 41 41 46 51 52 53 53 54 55 56 60 61 65 66 66 68 68 68 69 71 70 70 70 70 70 71 72 71 71 71 69 70 70 69 66 62 61 59 58 62
16 15 15 16 18 21 39 31 39 41 40 41 46 49 51 52 53 54 55 57 60 64 66 66 69 69 69 70 70 69 68 68 68 68 70 71 72 72 71 70 70 68 68 64 61 63 63 58 58
17 18 18 18 18 19 23 33 35 41 41 40 43 47 49 51 52 53 55 56 59 62 65 65 68 71 70 70 69 69 68 67 68 68 69 70 72 71 71 71 70 66 66 64 63 62 63 62 60
17 13 12 18 19 17 20 28 34 37 39 39 42 44 47 49 51 52 55 55 57 61 64 65 66 70 71 70 70 69 68 67 67 67 68 71 71 71 71 71 70 66 65 65 63 61 62 63 63
14 9 6 7 12 15 19 31 32 37 41 39 41 44 44 48 49 50 53 54 56 59 63 66 67 67 70 70 69 69 69 68 67 67 69 70 70 69 71 71 69 65 63 65 63 63 62 62 62
13 8 5 5 10 14 18 23 28 35 41 42 42 44 44 44 48 50 52 55 55 58 63 66 67 66 69 69 70 70 69 69 69 69 69 70 69 67 70 70 68 66 63 65 64 63 63 62 61
13 7 6 5 13 10 15 20 25 32 35 42 43 44 44 43 44 47 51 54 56 59 64 66 67 67 69 69 69 70 71 70 69 69 69 69 68 67 69 69 67 65 63 65 65 63 63 63 62
14 12 5 4 1 3 7 15 17 21 30 36 40 43 44 44 44 45 47 53 56 58 64 66 68 67 69 70 70 69 70 71 70 70 70 68 67 67 68 69 67 65 63 66 65 64 63 63 64
17 13 8 5 3 1 5 6 14 17 24 30 41 43 44 46 46 46 46 52 55 57 63 66 68 67 69 70 70 70 71 70 71 72 71 69 67 67 67 69 67 65 64 63 66 64 64 62 62
18 15 10 6 5 5 3 4 16 17 22 28 37 42 43 44 44 48 47 49 54 58 62 66 69 68 69 71 71 71 71 71 70 70 72 70 68 67 67 68 68 66 65 64 64 64 63 63 62

GFSSGP_sfc_30mbdewp_027.txt.gz
Dewpoint
71 71 71 67 57 55 52 52 57 53 55 57 58 56 57 59 56 53 66 68 69 69 70 72 72 72 73 73 74 74 73 73 73 73 72 72 72 72 72 72 72 71 71 71 72 71 71 71 71
71 70 68 61 53 50 50 53 53 55 57 58 58 59 58 58 63 65 66 68 69 70 71 72 72 72 73 73 74 74 73 73 73 73 73 72 72 72 72 72 71 71 71 71 71 71 71 71 71
71 68 61 57 54 49 48 54 55 56 57 57 57 59 59 60 64 65 67 69 69 70 71 72 72 72 72 73 73 74 73 73 72 72 72 73 72 72 71 71 71 71 72 71 71 71 71 71 71
65 64 65 56 52 53 52 55 57 57 57 58 59 58 62 64 64 66 68 69 70 70 72 72 72 72 72 72 72 72 72 73 72 72 72 72 72 71 71 71 71 72 72 71 71 71 71 71 70
66 63 56 54 53 52 55 56 58 56 58 58 58 59 61 64 66 67 68 69 69 71 71 72 72 73 73 72 72 71 72 73 73 72 72 72 71 71 71 70 71 71 72 71 70 71 70 71 70
62 61 52 49 49 53 56 57 57 57 59 59 59 59 62 66 66 68 68 68 69 70 72 72 72 72 72 72 72 72 71 73 73 72 72 72 71 71 71 70 71 71 71 71 71 71 71 70 69
56 55 49 49 48 53 56 58 57 58 57 57 59 58 63 65 67 68 68 69 69 71 72 72 72 71 72 72 72 71 71 73 73 73 72 72 72 71 70 70 71 71 70 71 71 70 70 70 69
58 52 49 50 49 50 56 57 57 57 57 59 59 57 60 65 67 67 68 69 70 72 72 72 72 71 72 72 72 71 71 72 73 72 72 72 72 71 71 71 71 71 70 70 70 70 70 70 70
59 49 46 47 49 49 56 56 57 59 58 57 59 60 61 65 65 66 68 68 70 71 72 72 72 72 73 73 72 72 71 72 72 72 72 73 72 71 72 72 72 72 71 70 70 70 70 71 70
56 49 44 45 46 52 55 56 56 57 56 59 59 61 64 65 65 65 66 66 68 69 71 72 72 73 73 74 73 73 72 72 73 73 72 73 71 70 71 72 71 71 71 71 71 70 70 69 70
54 52 49 46 46 53 55 55 57 57 55 59 58 61 62 63 64 65 65 66 67 68 70 72 72 73 73 72 72 72 72 72 72 72 72 71 71 70 71 70 71 70 71 69 69 70 69 70 68
52 52 51 48 46 47 53 55 55 56 55 59 59 61 62 62 63 64 64 65 66 68 69 71 72 72 72 71 72 72 72 72 71 70 70 69 69 70 69 69 69 69 70 70 69 70 69 68 68
52 50 46 49 49 45 53 54 55 56 57 60 60 61 61 61 62 63 64 66 66 67 68 70 71 71 72 70 71 72 71 71 70 68 68 70 70 69 68 69 70 69 69 70 69 69 69 68 69
30 39 36 37 37 44 52 53 54 57 58 60 61 60 61 61 62 63 64 65 66 67 68 69 70 70 71 70 69 70 70 70 69 68 68 69 70 70 68 69 70 70 70 70 70 69 68 69 69
28 28 30 29 29 41 48 51 52 55 59 60 61 61 61 61 62 63 64 65 66 67 68 69 69 70 70 69 70 69 68 69 69 68 69 69 70 69 68 69 69 69 70 71 70 68 68 66 63
24 23 23 28 36 37 43 42 51 55 58 60 61 61 61 62 62 63 63 65 65 66 67 68 69 69 70 70 70 69 68 69 68 69 70 70 70 69 70 70 69 70 70 70 67 68 66 61 59
22 22 23 22 36 41 39 41 53 56 57 59 60 61 61 62 62 62 63 64 65 65 66 67 68 69 69 69 69 69 69 69 68 69 70 70 70 70 70 70 70 70 69 69 68 67 65 59 59
21 20 21 19 25 39 40 42 53 55 56 59 59 60 61 61 62 62 62 63 64 65 66 67 68 68 69 68 69 69 69 69 68 68 70 70 70 71 70 69 70 70 69 69 67 65 66 60 60
20 20 21 21 26 34 37 40 53 54 54 54 58 60 60 61 61 62 62 62 63 64 65 66 66 67 68 69 69 68 67 68 69 70 69 70 71 71 70 69 70 70 68 68 66 64 60 57 62
21 19 18 19 22 36 36 39 45 54 54 54 54 56 59 60 60 59 61 61 62 63 65 66 66 66 68 68 68 69 68 68 68 70 69 69 71 71 71 69 70 70 68 68 66 61 59 60 62
20 19 18 18 19 38 40 39 41 53 54 55 55 55 55 56 56 56 59 60 61 62 64 66 66 67 67 68 69 70 70 70 69 69 69 69 69 71 71 70 69 70 69 68 64 61 59 58 62
20 19 17 15 16 15 38 35 39 47 52 53 54 55 55 55 55 55 58 61 61 62 64 66 66 67 67 69 69 68 66 65 68 69 69 70 72 71 71 70 70 69 69 67 63 61 59 59 58
21 21 18 18 16 16 21 32 34 44 47 47 50 53 54 55 55 55 56 60 61 62 64 66 67 67 67 67 68 67 66 67 68 68 68 69 71 71 71 70 70 69 69 66 63 62 63 59 58
21 19 15 17 18 15 17 19 18 39 41 43 43 49 52 53 54 55 55 57 60 62 65 66 66 67 67 67 67 68 67 67 67 67 68 68 70 71 71 71 69 67 67 65 63 63 62 63 62
21 17 15 12 12 12 14 19 19 29 40 41 41 43 48 51 52 53 54 55 57 60 64 65 66 67 68 68 68 68 68 68 67 67 67 68 69 70 71 70 70 67 65 65 63 62 61 63 62
18 17 13 9 8 11 17 16 20 26 34 42 42 42 43 48 50 52 52 54 56 59 63 64 66 67 69 69 69 69 68 68 67 67 67 68 69 70 70 70 70 68 65 65 63 63 61 61 62
17 15 15 10 15 11 14 17 20 25 31 36 41 41 43 45 48 50 52 53 55 57 61 64 65 66 69 69 69 69 69 68 68 68 68 68 69 70 69 71 70 68 64 65 63 62 62 62 61
16 13 11 7 10 8 6 10 12 22 24 31 39 41 43 45 46 48 50 51 54 56 59 63 64 65 67 69 69 68 69 69 68 68 68 69 69 69 68 70 69 67 65 64 64 63 62 63 62
19 13 11 10 7 6 5 5 9 16 22 27 35 42 44 45 45 46 48 50 53 55 58 62 64 64 65 67 68 68 69 69 69 68 69 69 69 68 68 69 68 67 65 65 64 64 63 62 62
19 18 15 10 8 6 5 5 14 14 17 23 25 35 42 45 45 45 46 48 52 55 57 62 64 65 65 67 67 67 68 69 70 69 70 70 68 67 67 68 68 66 65 63 65 64 64 63 61

GFSSGP_sfc_30mbdewp_030.txt.gz
Dewpoint
71 71 71 68 58 55 51 52 56 54 55 58 57 55 56 59 56 52 66 68 69 69 70 70 72 72 73 74 74 73 73 72 73 73 72 72 72 72 71 72 71 71 71 72 71 71 71 71 70
71 70 69 60 52 49 49 54 54 55 58 59 59 59 58 58 63 64 66 68 69 70 71 70 73 73 73 73 73 73 72 72 72 72 72 72 72 72 72 71 71 71 71 71 71 71 71 71 70
71 70 61 56 53 48 48 54 55 57 58 57 58 60 59 61 63 65 67 69 70 70 71 72 72 73 72 72 73 74 72 73 73 72 72 72 72 71 71 71 71 72 72 71 71 71 71 71 70
67 65 65 55 51 53 52 55 56 56 57 59 59 58 62 64 64 66 68 69 70 70 71 72 72 72 72 72 73 73 72 72 72 72 72 72 71 71 71 71 72 72 72 71 71 71 71 71 70
67 63 54 53 53 53 55 56 57 56 57 58 59 58 61 64 66 67 68 69 70 71 72 72 73 72 72 72 73 72 72 72 72 72 72 72 71 71 71 71 71 71 72 71 71 70 70 70 70
60 60 50 47 49 53 56 57 57 58 59 59 58 58 62 65 66 67 68 69 70 71 72 72 73 72 72 72 72 72 72 73 72 72 72 72 71 71 71 71 71 71 71 71 70 71 70 70 69
56 53 47 50 48 53 56 57 57 57 57 58 59 59 63 64 67 68 68 69 70 71 72 72 71 72 72 71 72 71 72 73 73 72 72 72 71 71 71 71 71 70 70 70 70 70 70 70 69
57 51 48 49 50 50 57 57 58 57 57 59 61 57 60 64 67 67 68 68 70 71 72 71 71 71 72 72 72 71 72 73 73 73 72 72 72 71 71 71 71 71 70 70 70 70 70 70 70
58 49 46 48 49 50 57 56 58 59 58 58 59 60 61 66 67 67 67 68 70 71 72 72 71 71 72 72 72 71 71 72 72 72 72 72 72 71 72 72 72 71 71 70 70 70 70 70 71
55 50 48 47 48 49 56 56 57 57 56 58 59 61 64 66 66 66 65 65 68 69 71 72 71 71 72 73 72 72 71 71 72 73 72 73 72 70 72 72 73 71 71 69 71 71 69 70 70
56 54 51 48 52 53 56 56 57 56 54 58 59 61 64 65 65 66 65 65 67 69 70 72 72 72 73 73 73 72 72 72 72 72 72 71 72 70 70 71 71 69 70 70 69 70 69 70 68
55 54 53 51 47 54 55 56 56 54 53 57 60 62 64 63 65 65 66 66 67 68 70 72 72 72 72 72 72 72 72 72 71 71 71 70 69 69 69 70 69 69 69 70 70 70 70 68 69
54 50 49 49 49 48 55 55 55 56 56 59 60 63 63 63 64 65 66 66 66 67 69 71 72 72 72 71 72 72 71 71 71 70 69 69 69 69 69 68 69 69 70 69 69 70 69 68 69
41 46 44 45 41 44 48 55 55 56 59 58 60 62 62 63 64 64 65 65 65 67 68 70 71 71 72 71 71 71 71 71 70 70 68 68 69 69 69 68 69 70 70 71 70 69 68 68 69
27 26 28 30 32 34 47 52 54 56 59 58 59 60 62 62 63 63 64 65 65 66 67 69 70 71 71 71 70 70 70 70 69 69 68 68 69 70 70 68 69 69 70 70 70 68 68 64 61
24 25 23 25 31 31 49 43 53 57 59 59 59 60 60 61 62 63 64 64 66 67 67 69 69 70 70 70 69 69 69 69 69 69 69 69 69 70 69 69 69 69 70 71 68 67 66 62 59
23 23 23 24 26 39 45 40 49 56 58 59 59 59 60 60 61 63 64 65 66 67 68 68 69 69 69 69 69 69 68 68 68 69 69 69 70 70 69 69 70 69 69 68 68 67 65 59 60
16 21 21 21 27 40 41 40 49 56 58 58 59 60 60 61 61 62 63 65 66 66 67 68 68 69 69 69 69 69 69 69 69 68 69 70 70 70 70 70 70 70 69 69 67 66 65 61 61
22 22 22 21 25 39 39 39 52 55 56 58 59 60 60 61 62 62 63 64 65 65 67 67 68 68 69 68 68 68 68 68 69 69 69 70 70 71 70 70 70 70 69 69 67 65 61 57 62
21 21 21 20 21 30 31 35 51 55 55 57 58 59 60 61 61 62 62 62 64 65 65 66 67 68 69 69 68 68 68 68 69 69 69 70 70 71 71 70 69 70 69 68 66 62 60 59 62
22 22 21 20 19 31 36 34 41 54 54 56 58 59 59 60 61 62 62 62 62 63 65 66 67 67 68 69 68 69 69 69 68 68 69 69 70 71 71 70 70 70 69 67 66 63 59 57 62
21 21 20 18 16 16 34 24 38 46 53 53 54 57 59 60 61 61 61 62 62 63 64 66 66 67 67 68 68 68 67 66 67 68 69 69 69 70 71 71 70 70 70 68 67 63 59 59 59
23 22 19 17 15 15 19 24 27 41 50 53 54 54 55 57 58 60 59 60 62 62 63 65 66 67 67 68 68 67 67 67 67 68 68 69 71 70 70 71 70 69 69 69 66 63 61 59 59
22 19 17 19 18 16 17 19 19 36 42 51 53 55 55 56 56 57 57 58 60 62 62 64 66 66 67 67 68 67 67 67 66 67 67 68 70 71 71 71 70 70 69 68 66 63 63 62 60
20 19 17 15 15 15 17 17 18 27 40 46 49 52 54 55 56 56 56 56 59 61 62 63 65 66 66 67 67 67 68 67 67 67 67 67 68 70 71 71 70 69 68 68 66 63 62 63 62
19 18 16 12 12 14 17 15 17 20 34 43 45 47 49 52 54 55 56 56 58 61 62 64 65 66 66 67 67 67 68 67 67 67 67 67 68 69 71 71 70 69 67 66 65 63 62 62 63
18 18 17 12 14 10 13 16 18 22 24 36 40 43 44 45 51 53 55 56 56 58 61 64 65 66 66 67 67 67 68 68 67 67 68 68 69 69 70 71 70 70 68 66 65 63 62 61 62
17 17 17 14 12 10 10 9 12 22 21 27 35 40 42 43 45 50 52 54 55 57 60 63 65 65 66 67 67 67 68 68 68 68 67 67 69 69 70 70 70 69 68 66 65 63 63 62 62
17 14 14 16 13 9 8 9 13 14 23 22 26 36 41 43 44 45 50 52 54 55 58 61 64 65 65 68 68 68 68 68 68 68 68 68 69 69 69 70 70 69 68 66 65 64 63 63 63
19 17 13 12 11 10 10 9 12 13 17 26 25 30 41 42 44 45 48 50 52 54 56 60 63 63 65 67 68 68 68 68 68 68 68 69 68 69 69 69 69 69 68 67 65 64 64 62 62

GFSSGP_sfc_30mbdewp_033.txt.gz
Dewpoint
71 71 70 68 59 56 51 52 55 54 55 57 56 56 55 59 55 53 67 70 69 69 69 70 72 72 72 73 74 74 73 73 73 73 72 72 72 72 72 71 71 71 71 71 70 71 71 70 70
71 70 69 62 55 49 50 54 53 54 58 58 58 58 57 58 62 65 67 69 68 67 68 69 72 73 73 74 74 74 72 73 73 72 72 72 72 72 71 71 71 72 71 71 71 71 71 70 70
70 69 62 58 53 49 48 54 55 56 57 56 58 59 59 60 63 64 67 67 66 66 68 71 73 74 73 73 73 73 73 72 72 72 72 72 72 71 71 71 72 72 72 71 71 71 71 70 69
68 66 64 55 50 52 52 55 56 57 58 58 58 58 62 63 63 65 67 66 66 67 68 72 73 72 72 73 73 72 72 72 72 72 72 72 71 71 71 72 72 72 71 71 70 71 71 70 70
65 62 56 52 51 52 54 55 57 56 57 57 57 58 61 65 66 66 66 66 66 67 69 70 73 73 73 73 73 72 72 72 72 72 72 71 71 71 71 71 71 72 71 71 70 70 70 70 69
63 60 49 45 48 52 55 56 57 57 58 58 57 58 61 66 65 66 66 66 66 67 68 69 72 73 73 73 72 72 72 72 72 72 72 71 71 71 71 71 71 71 71 70 70 70 70 69 70
56 52 46 47 48 51 55 57 57 57 56 56 58 57 63 64 65 66 66 67 67 67 68 68 69 71 72 72 72 72 73 72 72 72 72 72 71 71 71 71 71 70 70 70 70 70 70 69 70
58 51 46 47 48 49 56 56 58 56 56 58 59 57 59 64 65 66 66 67 67 68 68 69 68 69 69 70 71 72 72 73 73 72 72 72 72 71 71 71 71 71 70 70 70 70 70 70 70
57 48 47 45 48 48 57 56 57 58 57 56 59 59 60 65 65 65 65 66 67 68 68 68 68 70 71 70 70 71 72 72 72 72 72 71 71 71 71 72 73 71 70 70 70 70 70 71 71
53 51 48 47 49 45 55 56 57 57 55 56 59 61 63 65 64 63 64 64 65 66 67 68 68 69 70 69 71 71 69 68 69 70 71 71 71 71 71 72 72 70 70 70 70 70 71 69 68
58 52 52 46 49 52 55 56 57 56 54 55 58 60 63 63 63 63 63 63 64 65 66 68 69 70 69 69 70 70 69 69 70 72 72 71 71 71 70 71 70 70 70 68 69 69 68 70 69
55 56 54 51 51 54 55 56 56 56 52 54 59 61 62 62 62 62 62 62 64 65 66 67 68 70 70 69 69 69 69 69 68 69 72 71 69 70 71 70 71 70 69 70 71 70 70 69 69
58 53 51 51 49 47 55 54 54 56 54 57 60 61 61 61 62 62 62 63 64 65 66 67 69 70 70 71 69 69 70 68 67 69 70 69 69 70 71 70 70 70 71 70 69 71 70 69 67
46 51 46 36 39 42 46 48 55 54 56 59 60 60 61 61 62 62 63 64 64 65 65 67 69 70 70 70 71 70 70 69 69 67 68 69 69 71 71 70 69 71 71 71 71 70 69 69 69
32 27 27 27 30 33 38 43 51 55 58 59 59 59 60 61 62 63 64 64 64 65 66 67 69 70 70 70 71 71 70 69 67 67 69 69 69 71 72 71 69 70 71 73 72 70 69 64 61
25 26 23 26 28 30 36 28 43 55 57 57 58 59 60 61 62 63 64 65 65 64 66 68 68 69 70 70 70 70 69 68 67 67 67 68 69 71 71 71 69 70 72 72 70 70 67 64 61
20 18 24 25 27 34 38 30 42 54 56 57 58 58 59 61 62 63 64 65 65 66 66 67 68 68 69 70 70 70 69 68 66 66 67 68 70 71 71 70 70 72 71 71 70 68 67 62 60
16 19 20 22 27 36 35 37 45 54 55 56 57 57 59 59 60 62 63 64 65 66 68 68 68 68 70 69 70 69 68 66 66 66 69 69 70 71 71 70 72 72 70 70 70 69 66 62 62
16 16 20 23 25 35 34 35 42 53 55 56 57 57 58 58 59 61 62 64 65 66 67 68 69 70 69 68 67 66 64 65 67 69 71 71 71 72 72 70 71 72 70 70 70 68 66 60 63
18 15 18 23 22 25 27 34 40 51 54 55 57 58 58 58 59 61 62 63 64 66 67 69 69 70 70 69 68 65 65 65 68 70 71 71 71 72 72 71 71 71 70 71 70 68 64 63 63
21 14 14 18 21 25 29 26 35 48 52 54 57 57 58 58 59 60 61 62 64 65 67 69 70 70 70 69 69 68 69 69 69 69 70 71 72 72 72 72 71 72 71 69 70 68 65 59 63
16 19 16 18 19 19 28 22 33 38 50 53 54 57 57 58 59 60 61 62 63 65 67 68 69 70 70 71 68 68 65 64 66 67 69 69 71 71 72 72 72 72 70 70 70 68 66 62 59
18 21 18 16 19 20 20 23 25 41 45 50 52 55 57 57 59 60 61 62 63 64 65 67 69 70 70 71 70 69 68 66 66 68 69 71 71 72 71 72 72 72 71 71 71 69 67 63 60
24 23 22 22 19 17 20 21 22 27 35 43 50 53 56 57 58 59 61 63 63 63 64 65 69 69 70 70 71 70 69 68 67 68 68 68 68 69 71 72 72 72 71 72 71 70 68 65 63
23 19 15 14 14 14 20 21 22 26 32 31 43 51 54 56 58 58 60 61 63 64 64 65 68 68 70 70 70 70 70 70 69 69 68 67 67 68 70 73 73 72 72 72 71 70 68 66 63
22 18 10 8 7 9 20 18 20 24 26 34 37 44 52 55 55 57 58 61 62 63 65 65 66 68 69 69 69 70 70 69 69 69 67 67 67 68 70 73 72 72 72 71 70 69 67 66 65
20 19 16 11 15 11 11 16 21 24 25 31 37 40 46 51 54 56 57 59 60 61 63 65 66 67 68 69 69 70 70 70 68 69 70 68 69 68 70 72 72 72 72 71 70 68 68 66 66
19 19 16 15 7 7 11 15 13 23 22 27 32 36 41 45 50 53 56 58 59 60 62 65 66 67 68 68 69 69 69 70 70 70 70 69 69 70 69 71 71 72 72 71 70 68 68 66 64
16 18 16 15 12 4 4 4 20 23 30 27 28 32 37 42 45 48 53 57 59 59 60 63 65 66 67 68 68 69 69 69 70 70 70 70 70 70 71 71 71 71 72 71 70 68 67 66 65
18 17 18 13 16 13 9 6 19 22 23 31 28 32 36 41 45 47 47 52 55 58 59 61 64 65 66 67 68 69 69 69 69 70 70 71 71 71 71 71 71 71 71 71 70 69 67 66 65

GFSSGP_sfc_30mbdewp_036.txt.gz
Dewpoint
69 69 69 67 59 55 49 51 52 52 53 55 55 55 55 58 56 55 68 70 68 69 69 70 72 73 73 74 74 74 73 73 73 73 72 72 72 72 71 71 71 71 71 71 71 71 70 70 70
69 68 68 61 54 47 48 51 51 53 55 56 57 56 56 57 61 65 67 68 68 69 69 69 73 73 73 74 74 74 72 73 73 72 72 72 72 72 71 71 72 71 71 71 71 71 70 70 69
68 67 62 57 50 46 46 51 53 55 56 56 57 58 57 60 64 65 68 68 68 66 67 70 73 73 73 73 73 73 72 72 72 72 72 72 72 71 71 72 70 71 71 71 71 71 70 69 69
66 65 62 56 46 49 49 53 54 55 56 56 56 58 61 63 64 66 68 67 66 66 66 71 73 73 73 73 72 72 72 72 73 72 72 72 71 71 71 72 71 71 71 71 71 71 70 69 69
63 59 54 51 45 49 51 54 54 53 55 56 56 58 61 64 65 66 66 65 65 64 66 70 73 73 73 73 72 72 72 73 73 72 72 71 71 71 71 71 72 72 71 71 70 70 70 70 69
62 57 47 41 43 50 52 54 54 54 56 56 56 59 63 64 65 66 65 63 64 63 63 68 73 73 73 73 72 72 72 73 73 72 72 71 71 71 71 71 71 71 70 70 70 70 69 70 70
58 49 44 42 44 47 52 55 53 53 54 54 57 57 62 63 65 64 63 63 63 62 62 64 67 71 73 73 72 72 72 72 72 72 72 71 71 71 71 71 71 70 70 70 70 70 70 70 70
60 49 45 45 43 47 53 54 55 53 53 57 58 57 59 62 64 63 63 63 63 61 61 63 65 67 68 70 72 72 73 72 72 72 72 71 71 71 71 70 71 71 70 70 70 70 70 70 70
58 47 42 42 44 45 54 53 55 55 55 55 57 57 60 63 63 63 63 63 63 61 61 62 63 65 67 66 69 71 72 72 72 72 71 71 68 68 68 69 72 70 69 69 70 70 70 70 71
55 46 42 45 43 43 51 52 54 52 53 53 57 58 61 62 62 61 63 63 63 61 61 61 61 64 65 64 67 67 66 65 65 67 68 68 69 69 69 69 72 70 69 70 70 70 69 69 65
52 45 46 43 45 49 50 52 53 52 50 52 56 59 61 61 62 61 62 62 61 61 60 61 63 65 65 64 66 65 64 64 67 69 69 69 69 69 67 67 66 67 69 67 67 66 66 66 65
51 50 49 45 46 47 51 52 52 52 49 53 57 59 61 61 61 60 60 61 61 61 62 62 64 66 65 64 65 64 62 63 63 64 69 70 68 68 68 66 67 67 67 66 65 64 65 65 65
51 48 46 46 46 44 46 49 48 52 52 53 57 59 60 60 60 60 60 60 61 62 63 63 65 67 67 66 64 63 63 63 62 64 67 67 67 68 68 67 66 67 68 66 65 65 64 64 62
45 47 44 40 38 37 39 43 46 49 54 55 57 58 59 59 59 60 60 60 61 62 62 63 65 67 68 67 67 65 65 63 63 62 64 69 68 70 68 67 66 66 67 67 64 65 65 65 64
43 35 31 33 30 31 34 34 38 46 54 55 56 57 58 58 59 59 60 60 61 62 63 63 66 67 68 68 68 68 65 64 62 62 66 68 69 70 69 67 67 66 68 67 66 69 69 64 62
33 26 26 29 28 28 30 29 35 45 52 55 56 57 57 58 58 59 60 60 61 62 63 64 65 65 68 68 68 66 65 64 62 62 64 67 69 71 70 68 66 68 68 66 66 68 64 62 60
23 25 28 28 28 30 30 31 38 43 51 53 55 56 56 57 58 59 60 60 60 62 63 65 65 65 66 68 68 68 66 66 62 62 64 66 69 70 71 68 67 71 69 67 67 66 64 60 58
24 23 25 29 29 28 31 33 33 44 50 51 55 55 56 56 57 59 60 60 61 62 64 66 66 66 68 68 69 67 65 65 62 63 64 66 69 69 71 68 68 69 67 67 66 67 65 60 57
23 23 24 26 27 26 28 30 31 43 48 50 53 55 56 56 57 58 60 60 62 63 65 66 67 68 69 68 66 65 62 62 61 63 65 69 70 71 72 69 69 70 68 68 68 65 66 59 58
21 19 21 25 25 25 28 29 31 40 47 50 52 53 55 56 56 58 60 60 61 63 65 67 68 69 70 68 67 63 61 60 61 64 66 70 71 72 72 71 69 70 68 70 69 68 62 61 58
20 19 20 22 24 24 24 26 28 34 44 47 50 52 54 55 56 57 58 59 60 61 64 67 69 70 70 69 67 66 63 62 62 64 67 70 71 72 73 71 70 70 70 67 70 69 66 59 58
17 19 19 18 19 20 25 23 26 29 36 41 45 51 52 56 56 56 57 58 59 62 64 67 69 70 71 71 67 67 63 61 61 64 66 67 71 71 71 72 72 72 69 69 70 69 67 66 56
14 13 17 18 16 19 21 22 24 28 29 35 40 47 52 54 55 56 57 57 59 61 63 66 69 71 71 72 69 67 67 62 62 63 67 70 70 71 70 72 72 72 72 70 71 70 70 66 58
14 15 14 17 14 14 20 21 22 25 30 32 37 44 50 53 54 56 58 57 58 60 62 65 69 72 72 71 71 71 69 67 63 65 65 66 67 68 70 70 72 73 71 71 72 72 70 68 64
17 17 12 9 9 11 16 19 22 25 27 31 32 38 47 53 54 55 57 59 58 59 61 64 68 71 71 71 71 71 71 70 69 68 67 66 65 64 67 71 71 72 73 71 72 72 69 70 67
18 16 7 6 3 7 14 16 20 24 27 28 31 30 42 50 53 54 56 59 60 60 63 64 67 70 71 71 72 73 73 69 69 69 67 67 65 65 66 69 71 72 72 73 73 71 70 68 69
20 16 12 4 9 7 6 12 17 22 24 27 27 29 32 47 51 54 55 57 60 62 64 65 67 70 70 70 72 73 73 72 68 69 71 68 69 66 67 69 71 71 71 72 72 70 69 67 69
17 18 12 9 7 6 4 9 13 17 21 24 25 29 31 39 48 51 54 56 58 61 63 66 68 69 70 69 70 71 71 73 72 71 71 70 69 69 67 69 70 71 71 72 72 70 70 69 67
15 16 15 11 8 5 5 3 12 16 22 23 26 29 30 36 43 48 50 53 56 58 61 63 66 68 69 69 70 70 70 71 72 71 72 72 71 71 70 70 70 70 70 72 72 70 68 69 68
16 15 16 11 13 11 8 4 11 14 17 24 23 27 30 33 37 42 45 49 53 56 58 60 62 65 66 68 71 71 70 71 70 72 72 73 72 72 72 71 71 70 70 71 72 71 68 69 68

GFSSGP_sfc_30mbdewp_042.txt.gz
Dewpoint
70 68 68 67 60 58 53 53 57 54 53 52 54 55 56 57 55 54 67 67 66 67 69 71 74 74 74 74 74 74 73 74 73 73 73 72 71 71 71 72 71 71 71 71 70 70 70 70 70
66 66 68 65 57 51 51 52 53 53 53 54 55 55 57 58 63 64 65 67 65 65 68 71 74 74 74 74 74 73 73 73 73 73 73 72 71 71 71 71 71 72 71 71 70 70 70 70 70
67 67 64 61 56 52 51 52 52 53 54 56 57 59 58 60 62 63 66 65 64 63 66 72 73 74 74 74 74 73 73 73 72 72 72 71 71 72 71 71 71 71 71 71 70 70 70 69 69
67 66 65 59 52 53 51 52 52 52 54 57 57 58 61 62 61 62 65 63 60 67 68 73 74 74 74 74 73 73 72 72 72 72 71 71 72 72 72 71 71 71 70 70 70 70 70 69 69
67 62 56 54 53 50 49 49 51 51 54 55 58 59 60 61 62 62 64 59 64 66 69 72 74 74 74 73 73 73 72 72 72 71 71 71 71 72 72 72 71 71 70 70 70 70 70 70 70
63 61 53 50 49 44 47 50 52 53 56 57 58 59 62 64 62 64 57 58 66 66 67 71 74 74 73 72 73 73 72 72 72 71 71 71 71 71 72 71 71 70 70 70 70 70 70 70 70
60 56 53 53 49 45 45 49 48 49 54 56 59 59 62 63 64 61 62 65 65 65 67 70 71 72 73 73 72 72 72 72 72 72 71 71 71 71 71 71 71 70 70 70 70 70 70 70 70
59 57 55 56 47 43 46 46 47 51 54 58 59 59 61 63 62 65 65 64 64 63 66 68 69 69 70 71 72 72 72 72 72 72 71 71 71 71 70 71 70 70 70 70 70 70 70 71 71
55 56 52 46 44 46 44 47 51 52 55 55 58 61 63 63 62 63 63 63 63 64 63 64 65 68 70 70 71 72 72 72 72 71 71 71 71 70 71 70 70 70 70 70 69 69 70 70 71
53 54 54 51 49 47 45 43 47 48 49 56 58 63 63 63 62 62 61 62 61 61 59 60 63 66 67 65 71 70 69 68 70 70 61 60 72 71 69 68 70 69 69 69 70 69 69 69 66
49 50 53 54 51 47 46 42 45 46 47 56 59 61 62 62 62 62 61 60 61 60 57 59 64 66 65 67 68 68 67 67 70 70 67 67 71 70 70 69 69 66 70 69 69 67 69 70 69
45 50 50 50 49 50 50 52 48 44 47 57 59 60 61 61 61 60 61 60 59 58 57 59 64 65 64 67 64 65 64 66 69 71 71 71 69 69 70 69 71 69 71 70 70 70 69 65 66
43 49 50 53 50 52 56 49 47 46 49 55 58 59 59 60 60 61 61 60 60 58 56 60 64 66 66 68 63 64 63 62 65 69 70 71 69 70 71 70 70 70 70 69 69 67 65 62 63
43 42 44 49 40 50 48 50 47 47 47 53 56 57 58 58 60 61 61 60 60 57 57 61 65 67 68 67 68 66 64 61 63 64 69 69 71 70 70 69 69 70 67 65 69 68 69 66 64
40 40 41 45 39 37 37 47 47 55 47 50 54 56 56 55 60 60 60 61 59 57 58 62 65 66 69 68 68 67 66 62 61 65 70 68 70 70 71 70 69 69 71 71 69 69 66 64 65
38 40 39 40 40 37 34 33 47 50 49 51 52 54 55 54 54 57 59 57 58 57 60 62 61 66 67 68 69 68 66 64 64 63 68 69 70 71 71 67 70 71 70 70 69 67 68 65 64
37 35 38 38 39 37 33 30 34 48 47 51 52 53 54 56 55 56 55 57 57 59 62 63 63 66 68 70 70 68 67 67 65 64 67 70 71 71 71 71 69 71 70 68 68 66 68 66 62
35 33 35 36 34 33 32 30 35 37 48 50 52 52 53 54 55 56 55 56 58 61 64 64 64 67 69 69 70 69 67 66 66 65 64 72 71 71 71 71 71 72 68 70 69 66 60 62 56
34 31 28 33 35 31 31 30 34 37 41 50 51 53 53 53 55 56 56 57 58 61 65 65 66 68 70 69 69 68 66 65 66 66 65 72 71 71 71 71 70 70 69 68 70 65 64 64 57
34 29 23 28 31 33 30 30 29 37 39 48 51 52 53 53 53 56 57 57 57 61 65 67 67 69 70 69 69 68 67 65 65 65 67 68 70 71 72 71 71 70 70 69 66 68 66 61 61
33 31 25 25 31 35 31 30 29 33 37 41 49 50 53 53 53 55 57 57 57 61 64 67 68 70 71 69 70 70 69 68 66 65 65 69 70 73 72 72 71 71 72 70 70 67 67 61 58
28 33 29 27 26 27 28 26 30 28 33 41 44 48 51 53 54 55 57 57 58 60 64 68 69 70 71 71 69 68 66 64 64 63 64 68 70 71 73 72 71 71 71 70 70 71 69 64 59
20 22 28 27 23 24 24 24 24 28 30 38 42 47 48 52 53 55 56 57 58 60 64 67 70 71 72 70 71 69 67 65 64 64 63 68 72 73 72 73 72 73 72 71 70 71 69 70 65
16 20 20 21 21 20 22 24 25 25 28 29 38 45 47 50 53 56 57 57 58 60 64 67 70 71 72 72 71 72 68 67 63 63 64 67 71 71 73 73 73 73 74 72 71 73 72 70 70
12 12 11 11 15 17 20 20 24 25 30 29 36 38 46 48 52 55 58 57 58 59 63 66 70 71 72 73 72 71 72 69 68 69 64 65 67 70 72 73 73 73 74 74 73 73 73 72 71
11 9 9 10 11 12 16 16 21 24 25 25 33 36 39 45 49 53 58 58 58 59 62 65 70 71 73 73 73 72 73 72 68 70 66 65 66 67 71 72 74 73 74 74 74 75 73 73 72
11 10 10 8 9 8 10 14 16 22 23 24 24 32 36 41 46 51 57 58 59 59 61 63 68 71 73 73 73 74 72 73 70 68 70 70 67 68 69 73 73 73 74 73 74 72 74 72 72
14 13 9 8 7 8 6 12 14 18 24 25 26 27 34 39 44 51 55 58 59 59 60 63 66 70 72 73 73 74 74 73 72 70 71 69 71 68 72 73 73 74 74 74 74 73 73 73 73
12 13 11 9 8 7 9 9 14 22 22 25 26 28 31 38 44 49 54 57 59 59 60 62 64 69 72 73 74 73 74 74 73 71 72 73 71 73 70 73 73 73 73 73 74 72 72 72 72
15 12 15 15 15 10 12 9 15 19 23 23 24 29 30 35 44 47 52 55 58 59 60 61 63 66 71 73 74 73 74 74 74 73 72 73 73 72 74 73 73 73 73 74 73 73 70 72 72

GFSSGP_sfc_30mbdewp_045.txt.gz
Dewpoint
70 70 69 67 58 58 53 54 58 56 58 59 55 56 58 60 56 53 67 67 68 70 72 73 74 74 74 74 74 73 73 72 73 73 73 72 71 72 72 72 71 72 71 71 71 71 71 71 70
68 67 68 64 58 52 52 55 55 55 54 56 58 58 58 60 63 65 65 66 68 69 72 73 74 74 73 74 73 73 72 73 73 74 73 72 72 72 71 72 72 72 71 71 70 70 70 70 70
66 66 64 60 56 52 52 54 53 54 56 58 58 60 60 61 64 64 65 66 67 68 72 73 74 74 74 73 73 74 73 72 73 72 72 72 73 72 71 71 71 71 71 71 70 70 70 69 69
68 66 65 58 55 55 54 54 54 55 57 58 59 59 61 63 63 65 66 65 65 71 73 74 74 74 73 73 73 73 72 72 73 72 72 72 72 72 71 71 71 71 71 70 70 70 70 70 69
68 63 55 53 53 56 55 54 55 55 56 58 60 58 59 62 65 65 65 64 67 71 73 74 74 74 74 73 73 73 72 72 72 72 72 72 72 72 72 71 71 71 71 71 71 71 70 70 70
63 61 53 51 52 52 53 54 55 55 58 59 59 60 60 64 63 63 62 64 69 71 73 73 74 74 73 72 72 73 72 72 72 72 72 72 72 72 72 71 71 71 70 70 70 70 70 71 70
59 54 51 55 54 52 51 54 55 57 57 59 60 60 61 62 62 62 60 65 68 70 72 73 73 72 72 73 72 73 72 72 72 72 72 71 71 71 71 71 71 71 70 70 70 70 70 71 70
61 54 51 55 54 52 49 51 56 57 57 60 62 59 60 62 57 57 62 65 66 70 71 72 72 72 73 73 72 72 72 72 72 72 72 71 71 71 71 71 71 71 70 70 70 70 70 71 71
61 58 54 53 48 48 54 53 56 57 58 59 59 62 63 58 56 63 64 65 65 68 70 70 70 71 72 72 72 72 72 72 72 72 72 72 72 71 70 71 71 70 70 70 69 70 70 71 71
55 54 53 53 53 50 49 51 56 57 60 60 61 63 61 61 63 63 63 64 64 66 67 68 68 69 70 70 72 72 72 72 71 71 63 63 68 71 71 70 70 70 70 70 70 69 71 70 68
52 53 51 53 54 52 50 49 50 57 59 61 61 61 61 63 63 62 63 63 64 63 64 65 68 69 68 69 71 71 70 70 71 68 67 61 71 70 71 70 69 60 66 69 69 66 67 68 68
50 52 51 50 51 53 50 51 47 57 60 62 62 62 61 62 62 62 62 62 63 61 61 63 66 67 67 68 69 69 69 69 68 69 66 59 66 62 70 69 68 67 68 69 71 69 69 68 68
46 49 50 49 50 54 50 45 49 57 61 63 62 62 61 62 62 61 61 61 61 60 58 62 65 67 68 66 66 67 67 68 69 71 70 71 69 66 71 70 70 69 70 69 70 70 68 64 62
46 47 49 49 48 51 46 47 48 57 59 61 61 61 61 61 61 61 61 60 60 59 58 63 65 67 67 68 67 64 68 66 69 71 72 70 68 70 70 70 70 70 70 66 70 68 68 65 66
45 43 48 51 50 51 51 47 46 57 59 59 60 61 61 61 61 61 61 61 59 59 61 63 64 68 67 66 67 68 67 63 65 69 70 70 69 70 71 71 70 68 69 67 70 69 66 64 64
41 41 38 44 46 49 50 44 49 53 57 58 59 60 60 60 61 61 61 61 61 60 63 64 63 67 68 66 68 68 67 67 65 69 69 70 71 71 69 69 70 71 71 71 69 69 66 63 66
37 37 37 40 41 44 47 43 50 50 55 57 58 58 58 59 61 61 61 61 61 60 64 64 64 66 69 68 69 67 68 68 67 69 69 69 69 72 70 69 68 62 71 70 69 66 67 65 64
34 36 36 38 40 41 38 35 50 51 51 54 56 56 55 59 60 61 61 61 60 60 63 63 65 66 68 69 69 67 66 68 68 67 69 70 71 72 72 70 67 68 70 70 69 65 62 62 60
36 37 35 35 39 38 37 34 49 50 52 55 56 54 55 55 56 60 60 59 58 62 64 62 67 67 67 70 68 68 65 66 67 66 71 71 71 72 72 70 69 70 70 67 69 64 64 61 60
33 36 35 34 34 35 34 33 36 48 55 57 57 58 55 55 55 56 55 57 59 63 63 65 67 69 67 69 68 69 68 67 67 65 70 71 71 72 72 71 71 71 69 69 69 66 65 62 62
30 33 34 33 28 28 33 32 32 47 53 54 59 60 55 55 55 56 55 56 59 63 63 65 66 70 69 69 69 68 69 68 67 66 65 71 71 71 72 71 71 70 71 69 69 66 66 58 62
29 33 34 34 30 31 33 31 33 35 49 54 59 57 54 54 54 56 55 56 59 63 65 65 67 71 70 70 69 68 66 65 67 65 66 68 71 71 71 72 71 71 71 70 69 68 66 60 56
30 31 32 33 32 30 32 31 32 32 35 50 56 57 55 54 54 56 56 57 57 62 66 67 67 70 70 70 69 69 67 67 65 66 64 68 69 70 73 72 71 70 72 70 69 71 69 64 63
30 28 26 31 31 27 27 31 31 31 33 50 54 55 55 55 55 55 57 57 57 63 66 68 68 69 70 70 70 68 68 66 66 63 64 67 70 71 72 73 72 72 72 70 70 71 68 69 68
28 26 21 18 21 24 25 24 25 29 32 37 46 52 53 54 55 55 56 57 58 62 64 68 68 68 70 70 68 71 68 68 65 65 63 66 70 71 72 73 72 72 72 72 72 72 70 68 68
27 25 16 17 19 21 20 18 21 24 27 31 42 50 53 54 57 55 56 57 57 60 64 67 68 68 69 71 70 68 72 69 67 68 67 64 69 70 70 72 73 72 72 73 73 72 73 71 68
21 18 15 12 16 13 16 16 18 20 23 23 30 46 50 53 55 55 56 57 57 60 64 65 69 68 70 70 71 70 69 73 68 66 69 67 67 69 71 72 74 73 72 72 72 74 72 73 71
15 15 12 10 9 10 12 14 15 16 17 22 24 35 45 49 53 56 56 57 58 59 63 65 68 69 70 71 71 72 70 69 72 69 67 69 68 67 71 72 72 73 73 73 72 73 73 72 73
12 14 12 11 11 12 13 14 17 18 20 19 26 29 37 47 52 56 57 57 58 58 61 64 67 70 71 71 71 72 72 71 70 72 68 69 70 71 69 72 72 73 73 74 72 72 73 73 72
21 14 14 11 11 12 11 11 23 22 22 22 23 27 36 45 51 56 57 58 58 58 59 62 65 69 71 72 72 72 73 73 71 70 72 68 71 70 73 74 73 74 73 73 74 73 72 71 72

GFSSGP_sfc_30mbdewp_048.txt.gz
Dewpoint
70 70 69 67 58 58 53 54 58 58 58 61 56 55 58 61 57 53 66 68 69 71 73 73 73 73 73 74 73 73 72 72 73 72 72 72 72 72 72 72 71 71 71 71 71 71 71 70 69
70 69 69 65 57 51 51 55 56 57 58 59 59 59 59 59 64 64 66 68 70 72 73 74 74 73 72 73 74 73 72 73 72 72 72 73 72 72 73 72 72 71 71 71 71 71 70 70 70
69 67 64 60 56 52 52 55 56 56 57 58 59 61 61 61 64 64 67 69 70 72 74 73 74 74 72 72 73 73 72 73 72 72 73 72 72 71 71 71 71 71 71 71 70 70 70 70 69
66 66 64 57 52 55 56 55 55 56 57 60 60 59 62 64 63 65 67 68 70 72 73 74 74 72 72 73 72 73 72 73 72 72 73 72 71 71 71 71 71 71 71 71 70 70 70 70 69
68 63 54 53 54 55 57 59 55 56 57 59 59 58 61 63 65 65 66 68 71 72 73 73 74 73 73 72 72 72 72 72 72 72 72 72 72 72 72 72 71 71 71 71 71 71 71 70 70
63 60 53 52 54 55 57 62 59 57 58 58 58 59 61 65 64 65 65 70 72 73 73 73 74 74 73 72 72 72 72 72 72 72 72 72 72 72 71 71 71 71 71 70 71 71 71 71 70
56 55 53 52 54 55 58 60 59 58 58 58 60 58 62 62 64 64 66 71 72 73 73 73 73 72 72 72 73 72 72 72 72 72 72 72 72 72 72 71 71 71 71 71 71 71 71 70 70
59 55 53 54 53 54 56 60 59 58 58 61 60 58 59 61 63 62 66 70 71 72 73 73 72 72 73 73 72 72 72 72 72 72 72 72 71 71 71 71 72 71 70 70 70 71 71 70 70
59 53 49 54 54 55 57 57 59 59 60 59 60 60 62 61 62 60 65 68 70 71 72 72 72 72 73 72 72 72 73 72 72 72 72 72 71 71 70 71 71 70 70 70 70 70 71 70 70
61 57 52 54 53 51 55 57 57 58 59 60 60 62 60 60 59 59 64 67 68 69 71 71 71 72 72 72 72 72 72 72 72 71 67 67 69 71 71 71 71 71 71 71 71 69 70 70 68
59 55 55 53 53 54 53 56 59 59 59 60 60 59 56 56 57 63 64 66 67 69 70 70 70 71 71 70 72 72 72 71 71 68 63 66 71 71 71 71 68 61 66 67 70 68 65 68 68
53 55 53 52 51 52 51 51 58 59 60 62 61 57 54 54 62 63 63 65 66 68 68 68 69 70 69 70 71 71 70 70 70 68 65 68 67 69 67 69 66 67 67 66 69 69 69 69 68
52 53 53 53 51 51 49 50 56 59 61 62 60 58 57 60 63 63 63 64 65 65 66 67 68 68 68 68 69 70 69 69 69 69 68 68 64 64 67 69 69 68 69 69 69 70 69 65 63
50 51 49 51 50 51 50 49 54 61 62 61 60 61 62 62 62 62 63 63 63 63 64 65 67 67 68 67 66 67 68 68 69 69 69 70 69 69 70 69 70 69 69 69 67 68 67 66 65
41 42 46 50 49 49 52 47 58 61 62 60 60 61 62 61 61 62 62 62 63 61 62 64 66 67 67 66 65 66 67 67 69 69 71 70 66 69 70 69 70 70 70 69 68 68 66 63 65
38 40 41 48 50 51 48 45 59 61 61 60 60 60 61 61 61 62 61 61 62 60 60 63 65 67 66 68 67 68 67 65 69 70 71 70 68 70 70 70 70 70 70 70 70 69 66 63 65
32 34 37 43 49 50 49 46 58 61 60 60 60 60 61 60 61 62 61 61 61 60 60 63 63 67 66 69 66 67 67 68 68 70 70 70 71 70 68 69 69 69 68 70 69 67 67 64 64
28 35 37 37 46 47 48 46 56 59 60 60 60 60 60 60 60 61 61 61 61 62 62 62 63 67 67 68 66 66 66 67 68 69 69 70 71 70 68 69 67 64 70 69 69 67 66 65 64
29 34 34 38 41 47 44 46 49 57 58 59 60 60 60 60 61 61 61 61 61 63 63 63 63 66 67 68 66 65 64 64 66 67 69 70 70 72 70 69 69 69 70 69 68 62 62 58 62
23 27 32 37 38 39 42 44 48 55 57 58 59 59 59 60 60 61 61 60 60 63 63 63 63 65 67 67 67 66 65 65 66 67 70 70 71 72 71 69 69 70 70 68 69 65 65 60 62
23 25 26 35 37 35 37 38 47 50 55 57 58 58 58 57 59 60 61 61 61 62 63 64 64 65 66 68 68 68 68 66 65 66 68 71 71 72 71 71 71 70 71 68 69 67 64 58 63
23 25 26 30 34 33 35 33 39 47 52 54 55 56 56 55 58 60 60 61 60 60 63 65 66 66 66 69 67 66 65 66 66 65 66 70 71 72 72 71 71 70 70 70 69 67 67 58 58
25 26 26 29 32 33 32 33 35 47 52 52 53 53 53 56 55 56 59 59 59 61 63 64 68 67 67 69 67 66 65 66 67 66 65 67 71 71 71 72 71 70 71 70 69 69 67 63 57
29 28 29 30 29 29 31 31 32 45 51 53 51 53 54 56 56 55 56 57 59 61 62 64 68 68 68 68 68 67 66 66 66 65 65 65 69 70 72 71 71 70 70 70 69 70 68 66 63
31 28 26 26 26 25 30 30 30 45 51 52 52 55 55 55 55 55 56 55 59 62 62 63 66 68 69 68 68 68 67 67 66 66 64 64 67 69 70 72 71 71 71 71 69 70 69 68 68
29 28 27 25 22 22 25 27 28 29 37 52 53 55 56 53 53 55 56 55 57 62 64 64 65 66 69 68 68 68 68 68 67 66 65 64 67 69 70 72 72 72 72 72 72 71 70 68 69
29 26 26 21 18 19 21 22 24 24 26 48 53 55 56 54 53 55 55 56 57 61 64 65 65 65 68 68 69 69 69 68 68 67 66 65 66 70 70 71 73 72 72 72 72 72 71 71 69
28 27 24 21 20 13 14 16 20 20 18 25 50 54 55 53 54 53 55 56 57 59 63 65 66 65 66 68 68 68 69 71 69 67 67 69 66 68 70 70 72 72 72 71 71 72 72 72 71
26 23 23 23 17 14 11 12 16 16 17 17 37 52 53 52 54 54 55 56 57 58 62 65 66 66 67 67 69 69 68 67 72 69 66 67 69 68 69 70 71 72 72 72 71 71 72 72 71
31 21 18 15 13 12 14 12 15 16 18 19 19 48 51 52 53 54 55 56 57 58 61 64 66 67 67 68 69 70 70 69 68 71 70 68 67 69 69 70 71 72 72 72 71 71 71 72 72